This demonstration page uses our WeatherBlox Daily Observations layout. Learn more.

39.92423, -83.80882

Hourly Observations for May 19, 2015

Temp ( °F °C ) Dew Point ( °F °C ) Humidity (%) Winds ( mph kmh ) Pressure ( in mb ) Visibility ( mi km ) Precip ( " mm )
12:56 am 00:56 Clear with Mist and Fog 67 19.4 67 19.4 100 100 SW 9 15 30.06 1018 4 6.43736 0 0
1:56 am 01:56 Clear with Mist and Fog 66 18.8 66 18.8 100 100 WSW 8 13 30.05 1018 3 4.82802 0 0
2:22 am 02:22 Mostly Clear with Mist and Fog 66 19 66 19 100 100 W 7 11 30.03 1017 2.5 4.02335 0 0
2:41 am 02:41 Mostly Cloudy with Mist and Fog 64 18 64 18 100 100 W 6 9 30.03 1017 2.5 4.02335 0 0
2:56 am 02:56 Cloudy with Mist and Fog 66 18.8 66 18.8 100 100 W 7 11 30.04 1017 3 4.82802 0 0
3:06 am 03:06 Cloudy with Mist and Fog 66 19 66 19 100 100 W 9 15 30.03 1017 3 4.82802 0 0
3:13 am 03:13 Mostly Cloudy with Mist and Fog 66 19 66 19 100 100 W 7 11 30.03 1017 4 6.43736 0 0
3:28 am 03:28 Partly Cloudy with Mist and Fog 64 18 64 18 100 100 WNW 12 19 30.03 1017 5 8.0467 0 0
3:56 am 03:56 Clear with Mist and Fog 64 17.7 60 15.5 87 87 WNW 9 15 30.05 1018 6 9.65604 0 0
4:56 am 04:56 Clear with Mist and Fog 60 15.5 56 13.3 87 87 WNW 9 15 30.06 1018 6 9.65604 0 0
5:56 am 05:56 Clear with Mist and Fog 57 13.8 53 11.6 87 87 WNW 6 9 30.07 1018 6 9.65604 0 0
6:56 am 06:56 Sunny with Mist and Fog 55 12.7 51 10.5 87 87 NW 6 9 30.09 1019 6 9.65604 0 0
7:56 am 07:56 Hazy 56 13.3 50 10 81 81 NW 10 17 30.1 1019 5 8.0467 0 0
8:56 am 08:56 Hazy 57 13.8 49 9.4 75 75 NW 12 19 30.12 1020 4 6.43736 0 0
9:56 am 09:56 Hazy 58 14.4 49 9.4 72 72 WNW 10 17 30.13 1020 5 8.0467 0 0
10:56 am 10:56 Hazy 59 15 48 8.8 67 67 W 10 17 30.13 1020 6 9.65604 0 0
11:56 am 11:56 Hazy 60 15.5 48 8.8 65 65 WNW 12 19 30.14 1021 5 8.0467 0 0
12:56 pm 12:56 Hazy 61 16.1 47 8.3 60 60 WNW 13 20 30.14 1021 5 8.0467 0 0
1:56 pm 13:56 Hazy 62 16.6 47 8.3 58 58 WNW 12 19 30.14 1021 5 8.0467 0 0
2:56 pm 14:56 Hazy 64 17.7 48 8.8 56 56 W 12 19 30.13 1020 5 8.0467 0 0
3:56 pm 15:56 Hazy 64 17.7 48 8.8 56 56 W 12 19 30.12 1020 5 8.0467 0 0
4:56 pm 16:56 Hazy 64 17.7 48 8.8 56 56 NW 13 20 30.12 1020 5 8.0467 0 0
5:56 pm 17:56 Hazy 61 16.1 46 7.7 58 58 NW 13 20 30.14 1021 5 8.0467 0 0
6:56 pm 18:56 Hazy 60 15.5 45 7.2 58 58 NW 12 19 30.13 1020 5 8.0467 0 0
7:56 pm 19:56 Mostly Cloudy with Haze 57 13.8 45 7.2 65 65 NNW 10 17 30.14 1021 5 8.0467 0 0
8:56 pm 20:56 Mostly Cloudy with Haze 54 12.2 44 6.6 69 69 NNW 8 13 30.15 1021 6 9.65604 0 0
9:56 pm 21:56 Mostly Cloudy 53 11.6 44 6.6 72 72 NW 12 19 30.16 1021 7 11.26538 0 0
10:56 pm 22:56 Cloudy with Haze 52 11.1 43 6.1 72 72 NNW 13 20 30.16 1022 6 9.65604 0 0
11:56 pm 23:56 Cloudy with Haze 51 10.5 42 5.5 71 71 NNW 12 19 30.15 1021 6 9.65604 0 0

Powered by AerisWeather